| time (UTC) | temp F | wind direction | speed MPH | gust MPH | rain 1hr in | rain 24hr in | rain mn in | humidity % | barometer mb |
| 20260507080004 | 55 | 205 | 0.0 | 0.0 | 0.00 | 0.03 | 0.00 | 100 | 1009.3 |
| 20260507074504 | 53 | 211 | 0.0 | 0.0 | 0.00 | 0.03 | 0.00 | 100 | 1009.4 |
| 20260507073004 | 53 | 211 | 0.0 | 0.0 | 0.00 | 0.03 | 0.00 | 100 | 1009.5 |
| 20260507071504 | 52 | 211 | 0.0 | 0.0 | 0.00 | 0.03 | 0.00 | 100 | 1009.5 |
| 20260507070009 | 51 | 211 | 0.0 | 0.0 | 0.00 | 0.03 | 0.00 | 100 | 1009.6 |
| 20260507064504 | 51 | 211 | 0.0 | 0.0 | 0.00 | 0.03 | 0.00 | 100 | 1009.5 |
| 20260507063005 | 50 | 211 | 0.0 | 0.0 | 0.00 | 0.03 | 0.00 | 100 | 1009.5 |
| 20260507061504 | 50 | 211 | 0.0 | 0.0 | 0.00 | 0.03 | 0.00 | 100 | 1009.4 |
| 20260507060004 | 49 | 211 | 0.0 | 0.0 | 0.00 | 0.04 | 0.00 | 100 | 1009.4 |
| 20260507054504 | 49 | 244 | 0.0 | 0.0 | 0.00 | 0.04 | 0.00 | 100 | 1009.4 |
| 20260507053005 | 49 | 277 | 0.0 | 0.0 | 0.00 | 0.04 | 0.00 | 100 | 1009.3 |
| 20260507051504 | 48 | 355 | 0.0 | 0.0 | 0.00 | 0.04 | 0.00 | 100 | 1009.3 |
| 20260507050006 | 48 | 355 | 0.0 | 0.0 | 0.00 | 0.04 | 0.00 | 100 | 1009.4 |
| 20260507044504 | 48 | 355 | 0.0 | 0.0 | 0.00 | 0.04 | 0.00 | 100 | 1009.3 |
| 20260507043005 | 48 | 355 | 0.0 | 0.0 | 0.00 | 0.04 | 0.00 | 100 | 1009.5 |
| 20260507041504 | 48 | 355 | 0.0 | 0.0 | 0.00 | 0.04 | 0.00 | 100 | 1009.5 |
| 20260507040004 | 48 | 355 | 0.0 | 0.0 | 0.00 | 0.04 | 0.00 | 100 | 1009.5 |
| 20260507034504 | 48 | 355 | 0.0 | 0.0 | 0.00 | 0.04 | 0.00 | 100 | 1009.7 |
| 20260507033004 | 48 | 355 | 0.0 | 0.0 | 0.00 | 0.04 | 0.00 | 100 | 1009.8 |
| 20260507031504 | 49 | 355 | 0.0 | 0.0 | 0.00 | 0.04 | 0.00 | 100 | 1009.8 |
| 20260507030004 | 49 | 355 | 0.0 | 0.0 | 0.00 | 0.04 | 0.00 | 100 | 1009.9 |
| 20260507024504 | 49 | 355 | 0.0 | 0.0 | 0.00 | 0.04 | 0.00 | 100 | 1009.9 |
| 20260507023005 | 49 | 355 | 0.0 | 0.0 | 0.00 | 0.04 | 0.00 | 100 | 1009.9 |
| 20260507021504 | 49 | 266 | 0.0 | 1.0 | 0.00 | 0.04 | 0.00 | 100 | 1010.0 |
| 20260507020004 | 49 | 355 | 0.0 | 0.0 | 0.00 | 0.04 | 0.00 | 100 | 1010.1 |
| 20260507014504 | 50 | 355 | 0.0 | 3.0 | 0.00 | 0.04 | 0.00 | 100 | 1010.0 |
| 20260507013005 | 50 | 306 | 0.0 | 3.0 | 0.00 | 0.04 | 0.00 | 100 | 1010.4 |
| 20260507011504 | 51 | 302 | 0.0 | 0.0 | 0.00 | 0.04 | 0.00 | 100 | 1010.6 |
| 20260507010004 | 51 | 302 | 0.0 | 0.0 | 0.00 | 0.04 | 0.00 | 100 | 1010.7 |
| 20260507004504 | 51 | 302 | 0.0 | 0.0 | 0.00 | 0.04 | 0.00 | 100 | 1010.8 |
| 20260507003004 | 51 | 302 | 0.0 | 0.0 | 0.00 | 0.04 | 0.00 | 100 | 1010.9 |
| 20260507001504 | 51 | 302 | 0.0 | 0.0 | 0.00 | 0.04 | 0.00 | 100 | 1010.9 |
| 20260507000004 | 51 | 302 | 0.0 | 0.0 | 0.00 | 0.04 | 0.00 | 100 | 1011.0 |
| 20260506234504 | 51 | 302 | 0.0 | 0.0 | 0.00 | 0.04 | 0.00 | 100 | 1011.2 |
| 20260506233005 | 52 | 302 | 0.0 | 0.0 | 0.00 | 0.04 | 0.00 | 100 | 1011.4 |
| 20260506231505 | 52 | 302 | 0.0 | 0.0 | 0.00 | 0.04 | 0.00 | 100 | 1011.5 |
| 20260506230005 | 52 | 302 | 0.0 | 0.0 | 0.00 | 0.04 | 0.00 | 99 | 1011.6 |
| 20260506224504 | 52 | 302 | 0.0 | 0.0 | 0.00 | 0.04 | 0.00 | 98 | 1011.5 |
| 20260506223005 | 52 | 302 | 0.0 | 0.0 | 0.00 | 0.04 | 0.00 | 98 | 1011.7 |
| 20260506221504 | 52 | 302 | 0.0 | 0.0 | 0.00 | 0.04 | 0.00 | 97 | 1011.9 |
| 20260506220004 | 52 | 302 | 0.0 | 0.0 | 0.00 | 0.04 | 0.00 | 96 | 1012.0 |
| 20260506214504 | 52 | 302 | 0.0 | 0.0 | 0.00 | 0.04 | 0.04 | 95 | 1012.0 |
| 20260506213005 | 52 | 302 | 0.0 | 0.0 | 0.00 | 0.04 | 0.04 | 93 | 1012.0 |
| 20260506211504 | 52 | 302 | 0.0 | 0.0 | 0.00 | 0.04 | 0.04 | 92 | 1011.9 |
| 20260506210004 | 52 | 302 | 0.0 | 0.0 | 0.00 | 0.04 | 0.04 | 91 | 1012.0 |
| 20260506204504 | 53 | 61 | 0.0 | 0.0 | 0.00 | 0.04 | 0.04 | 90 | 1012.0 |
| 20260506203004 | 52 | 61 | 0.0 | 0.0 | 0.00 | 0.04 | 0.04 | 89 | 1012.0 |
| 20260506201504 | 52 | 61 | 0.0 | 5.0 | 0.00 | 0.04 | 0.04 | 88 | 1011.9 |
| 20260506200005 | 53 | 75 | 1.0 | 5.0 | 0.00 | 0.04 | 0.04 | 88 | 1011.8 |
| 20260506194504 | 53 | 79 | 2.0 | 5.0 | 0.00 | 0.04 | 0.04 | 88 | 1011.7 |
| 20260506193004 | 53 | 74 | 1.0 | 7.0 | 0.00 | 0.04 | 0.04 | 86 | 1011.7 |
| 20260506191504 | 53 | 87 | 2.0 | 10.0 | 0.00 | 0.04 | 0.04 | 83 | 1011.5 |
| 20260506190005 | 53 | 30 | 3.0 | 7.0 | 0.00 | 0.04 | 0.04 | 81 | 1011.5 |
| 20260506184504 | 54 | 32 | 3.0 | 8.0 | 0.00 | 0.04 | 0.04 | 81 | 1011.4 |
| 20260506183005 | 54 | 351 | 3.0 | 10.0 | 0.00 | 0.04 | 0.04 | 80 | 1011.3 |
| 20260506181504 | 54 | 37 | 6.0 | 12.0 | 0.00 | 0.04 | 0.04 | 77 | 1011.4 |
| 20260506180005 | 54 | 42 | 6.0 | 10.0 | 0.00 | 0.04 | 0.04 | 74 | 1011.4 |
| 20260506174504 | 54 | 30 | 4.0 | 12.0 | 0.00 | 0.04 | 0.04 | 73 | 1011.4 |
| 20260506173005 | 55 | 2 | 6.0 | 12.0 | 0.00 | 0.04 | 0.04 | 72 | 1011.3 |
| 20260506171504 | 55 | 33 | 7.0 | 12.0 | 0.00 | 0.04 | 0.04 | 70 | 1011.3 |
| 20260506170004 | 55 | 52 | 5.0 | 12.0 | 0.00 | 0.04 | 0.04 | 70 | 1011.3 |
| 20260506164504 | 55 | 66 | 5.0 | 13.0 | 0.00 | 0.04 | 0.04 | 69 | 1011.2 |
| 20260506163004 | 55 | 79 | 6.0 | 12.0 | 0.00 | 0.05 | 0.04 | 70 | 1011.3 |
| 20260506161504 | 55 | 87 | 3.0 | 12.0 | 0.00 | 0.05 | 0.04 | 70 | 1011.1 |
| 20260506160004 | 55 | 79 | 5.0 | 12.0 | 0.00 | 0.05 | 0.04 | 71 | 1011.1 |
| 20260506154504 | 56 | 358 | 5.0 | 13.0 | 0.00 | 0.05 | 0.04 | 71 | 1011.1 |
| 20260506153005 | 57 | 55 | 6.0 | 12.0 | 0.00 | 0.05 | 0.04 | 72 | 1011.3 |
| 20260506151504 | 57 | 53 | 6.0 | 12.0 | 0.00 | 0.06 | 0.04 | 75 | 1011.4 |
| 20260506150004 | 57 | 55 | 5.0 | 10.0 | 0.00 | 0.06 | 0.04 | 81 | 1011.5 |
| 20260506144504 | 56 | 35 | 2.0 | 8.0 | 0.01 | 0.06 | 0.04 | 84 | 1011.6 |
| 20260506143005 | 56 | 355 | 3.0 | 8.0 | 0.03 | 0.12 | 0.04 | 86 | 1011.7 |
| 20260506141504 | 55 | 343 | 2.0 | 5.0 | 0.03 | 0.12 | 0.04 | 85 | 1011.9 |
| 20260506140005 | 54 | 39 | 2.0 | 9.0 | 0.03 | 0.12 | 0.04 | 77 | 1012.1 |
| 20260506134504 | 55 | 301 | 2.0 | 6.0 | 0.02 | 0.16 | 0.03 | 76 | 1012.3 |
| 20260506133005 | 56 | 242 | 3.0 | 6.0 | 0.00 | 0.14 | 0.01 | 72 | 1012.4 |
| 20260506131504 | 56 | 259 | 4.0 | 7.0 | 0.00 | 0.15 | 0.01 | 69 | 1012.5 |
| 20260506130005 | 56 | 0 | 2.0 | 5.0 | 0.00 | 0.15 | 0.01 | 67 | 1012.4 |
| 20260506124504 | 56 | 21 | 2.0 | 6.0 | 0.00 | 0.15 | 0.01 | 69 | 1012.6 |
| 20260506123005 | 56 | 351 | 3.0 | 9.0 | 0.00 | 0.15 | 0.01 | 69 | 1012.6 |
| 20260506121504 | 56 | 354 | 5.0 | 12.0 | 0.00 | 0.15 | 0.01 | 65 | 1012.5 |
| 20260506120005 | 57 | 34 | 5.0 | 8.0 | 0.00 | 0.15 | 0.01 | 60 | 1012.4 |
| 20260506114504 | 59 | 301 | 2.0 | 7.0 | 0.00 | 0.15 | 0.01 | 60 | 1012.6 |
| 20260506113005 | 58 | 182 | 2.0 | 5.0 | 0.00 | 0.15 | 0.01 | 62 | 1012.7 |
| 20260506111504 | 56 | 61 | 2.0 | 6.0 | 0.00 | 0.15 | 0.01 | 65 | 1012.8 |
| 20260506110004 | 56 | 315 | 3.0 | 7.0 | 0.00 | 0.15 | 0.01 | 71 | 1012.8 |
| 20260506104504 | 56 | 320 | 2.0 | 8.0 | 0.00 | 0.15 | 0.01 | 79 | 1012.9 |
| 20260506103004 | 56 | 22 | 3.0 | 8.0 | 0.00 | 0.16 | 0.01 | 99 | 1012.9 |
| 20260506101504 | 57 | 14 | 5.0 | 8.0 | 0.00 | 0.16 | 0.01 | 100 | 1012.9 |
| 20260506100005 | 57 | 291 | 1.0 | 3.0 | 0.00 | 0.16 | 0.01 | 100 | 1013.0 |
| 20260506094504 | 57 | 294 | 0.0 | 2.0 | 0.00 | 0.16 | 0.01 | 100 | 1013.0 |
| 20260506093004 | 57 | 224 | 0.0 | 0.0 | 0.00 | 0.16 | 0.01 | 100 | 1013.0 |
| 20260506091504 | 56 | 223 | 0.0 | 0.0 | 0.00 | 0.16 | 0.01 | 100 | 1013.1 |
| 20260506090004 | 56 | 223 | 0.0 | 2.0 | 0.00 | 0.16 | 0.01 | 100 | 1012.9 |
| 20260506084504 | 56 | 223 | 0.0 | 0.0 | 0.00 | 0.16 | 0.01 | 100 | 1013.1 |
| 20260506083005 | 55 | 223 | 0.0 | 0.0 | 0.00 | 0.16 | 0.01 | 100 | 1013.1 |
| 20260506081504 | 55 | 223 | 0.0 | 0.0 | 0.00 | 0.16 | 0.01 | 100 | 1013.2 |